Volver al catálogo

CZ-6A DEB

ActivoSSO
NORAD 56634·DEBRIS·🇨🇳 China

Lanzado Nov 11, 2022 desde Taiyuan Satellite Launch Center

Loading…

Próximos Pases (próximas 24 horas)

TLE

ActualizadoSource: Space-Track

Época: Sep 14, 2026, 21:56 UTC

1 56634U 22151AFJ 26257.91421762  .00000127  00000-0  77898-4 0  9992
2 56634  98.7750 280.8093 0013383 129.3387 230.8979 14.21728307176370

Sigue CZ-6A DEB en tiempo real con AllMySat

Download on the App Store